Weather in Murmashi

Russia / Murmansk Oblast     68°48′54″N   32°48′44″E
temp.,
°C
wind,
m/s
gust,
m/s
humid.,
%
clouds,
%
prec.,
mm/h
press.,
hPa
HPBL,
m
19 april, mon
mon1900:00+2s3989100 0.0 1031292
03:000ssw249465 0.0 102969
06:00−1ssw2396100 0.0 102965
09:00+3wsw4108869 0.0 1028510
12:00+6sw497428 0.0 1027669
15:00+8wsw487426 0.0 1027825
18:00+7wsw38794 0.0 1026774
21:00+1sw119713 0.0 102611
20 april, tue
tue2000:00+3ssw2992100 0.0 1026318
03:00+3s26910 0.0 1025109
06:00+1ssw24969 0.0 102491
09:00+6sw3107248 0.0 1023511
12:00+8sw5955100 0.0 1022651
15:00+9ssw5964100 0.0 1021759
18:00+8ssw51080100 0.0 1019625
21:00+5s4128746 0.0 1018517
21 april, wed
wed2100:00+4ssw412805 0.0 1016521
03:00+3ssw413775 0.0 1015533
06:00+3ssw413763 0.0 1014562
09:00+6ssw511685 0.0 1013878
12:00+8ssw68555 0.0 10111107
15:00+8ssw575411 0.0 10111207
18:00+7ssw4558100 0.0 10091043
21:00+4sse2473100 0.0 100985
22 april, thu
thu2200:00+2sse1177100 0.0 100715
03:00+1wsw0074100 0.0 100510
06:00+1n0074100 0.0 100410
09:00+3nne0165100 0.0 1002207
12:00+5n1155100 0.0 1001587
15:00+7nnw1248100 0.0 10011287
18:00+6nnw235596 0.1 10011163
21:00+4nnw1276100 0.1 100297
23 april, fri
fri2300:00+2nw2490100 0.1 1003322
03:00+2nnw1399100 0.4 1005211
06:00+1n379097 0.4 1007530
09:00+2nne3476100 0.5 1009797
12:00+3ne3469100 0.1 1011949
15:00+3ne4672100 0.2 1012889
18:00+2ne4882100 0.2 1014779
21:00+1ne5981100 0.3 1014757